Kezdőlap
METAR-TAF:

METAR-TAF

Repülőterek :

Buffalo Municipal Airport

Buffalo, Minnesota, Amerikai Egyesült Államok

földrajzi szélesség: 45-09-32N, földrajzi hosszúság: 093-50-35W, magasság: 295 m

Jelenlegi meteorológiai megfigyelések

A jelentés 26 perccel ezelõtt készült, 16:15 UTC
Délkeleti szél 14 kt széllökések: 19 kt
Hőmérséklet 24°C
Páratartalom 50%
Légköri nyomás 1018 hPa
Látótávolság: 16.1 km
Derült ég

METAR: KCFE 291615Z AUTO 13014G19KT 10SM CLR 24/13 A3006 RMK AO2

Idő: 11:41 (16:41 UTC)


TAF: hiányzik

Meteorológiai megfigyelések és előrejelzések több, mint 4000 repülőtéren (METAR és TAF jelentéseket).

A térképen piros és sárga pontok jelzik az elérhető meteorológiai állomásokat.

Mozgassa az egeret a pont fölött, hogy megjelenjen az állomás neve.

Azután kattintson az időjárási megfigyelések és előrejelzések megtekintéséhez.

A térkép megváltoztatása: kattintson a fekete keresztel jelölt zöld gombra ráközelítéshez, a vonallal jelölt zöld gombra távolításhoz, vagy a zöld nyilakra a szomszédos térképek eléréséhez.


METAR-TAF: